• In Slovakia
  • List of Countries
  • For 7 days
  • Water Temperature
  • Satellite Maps
  • Weather Map
  • Weather Widgets
  • user-avatar
    Login

    Hourly Weather Uige

    Today, 20 October, Saturday

    Time Temperature Precipitation Wind Pressure Humidity
    00:00 +23°C° 0.2 mm 1 mps 690 mmHg 91%
    01:00 +22°C° 0 mm 1 mps 690 mmHg 94%
    02:00 +22°C° 0.1 mm 1 mps 690 mmHg 95%
    03:00 +22°C° 0.1 mm 1 mps 690 mmHg 96%
    04:00 +22°C° 0.1 mm 1 mps 690 mmHg 96%
    05:00 +22°C° 0 mm 1 mps 690 mmHg 95%
    06:00 +23°C° 0 mm 1 mps 690 mmHg 93%
    07:00 +24°C° 0 mm 1 mps 691 mmHg 92%
    08:00 +26°C° 0.1 mm 1 mps 691 mmHg 83%
    09:00 +28°C° 0.1 mm 1 mps 692 mmHg 73%
    10:00 +30°C° 0.1 mm 1 mps 692 mmHg 64%
    11:00 +31°C° 0.8 mm 1 mps 691 mmHg 63%
    12:00 +29°C° 0.8 mm 0 mps 691 mmHg 61%
    13:00 +30°C° 0.8 mm 0 mps 690 mmHg 60%
    14:00 +29°C° 2 mm 0 mps 689 mmHg 63%
    15:00 +30°C° 2 mm 1 mps 689 mmHg 67%
    16:00 +29°C° 2 mm 1 mps 688 mmHg 70%
    17:00 +28°C° 0.4 mm 1 mps 689 mmHg 74%
    18:00 +27°C° 0.4 mm 1 mps 689 mmHg 78%
    19:00 +25°C° 0.4 mm 1 mps 689 mmHg 83%
    20:00 +25°C° 0.5 mm 1 mps 690 mmHg 85%
    21:00 +24°C° 0.5 mm 1 mps 690 mmHg 88%
    22:00 +24°C° 0.5 mm 1 mps 690 mmHg 90%
    23:00 +23°C° 0.1 mm 1 mps 690 mmHg 92%

    Tomorrow, 21 October, Sunday

    Time Temperature Precipitation Wind Pressure Humidity
    00:00 +23°C° 0.1 mm 1 mps 690 mmHg 94%
    01:00 +23°C° 0.1 mm 2 mps 690 mmHg 96%
    02:00 +23°C° 0.2 mm 2 mps 690 mmHg 96%
    03:00 +23°C° 0.2 mm 2 mps 690 mmHg 95%
    04:00 +21°C° 0.2 mm 2 mps 689 mmHg 95%
    05:00 +23°C° 0 mm 2 mps 690 mmHg 94%
    06:00 +23°C° 0 mm 1 mps 690 mmHg 92%
    07:00 +23°C° 0 mm 1 mps 691 mmHg 90%
    08:00 +25°C° 0.8 mm 1 mps 691 mmHg 83%
    09:00 +27°C° 0.8 mm 1 mps 691 mmHg 76%
    10:00 +29°C° 0.8 mm 1 mps 692 mmHg 69%
    11:00 +31°C° 0.7 mm 1 mps 691 mmHg 61%
    12:00 +33°C° 0.7 mm 1 mps 691 mmHg 53%
    13:00 +35°C° 0.7 mm 1 mps 690 mmHg 46%
    14:00 +34°C° 0.4 mm 1 mps 690 mmHg 48%
    15:00 +33°C° 0.4 mm 1 mps 689 mmHg 50%
    16:00 +32°C° 0.4 mm 1 mps 688 mmHg 53%
    17:00 +30°C° 0.7 mm 1 mps 689 mmHg 60%
    18:00 +28°C° 0.7 mm 1 mps 689 mmHg 67%
    19:00 +26°C° 0.7 mm 1 mps 689 mmHg 74%
    20:00 +25°C° 1.8 mm 1 mps 690 mmHg 80%
    21:00 +24°C° 1.8 mm 1 mps 690 mmHg 87%
    22:00 +23°C° 1.8 mm 1 mps 691 mmHg 93%
    23:00 +23°C° 0.7 mm 1 mps 690 mmHg 93%

    Day after tomorrow, 22 October, Monday

    Time Temperature Precipitation Wind Pressure Humidity
    00:00 +23°C° 0.7 mm 1 mps 690 mmHg 94%
    01:00 +23°C° 0.7 mm 1 mps 690 mmHg 94%
    02:00 +23°C° 0.4 mm 1 mps 689 mmHg 95%
    03:00 +23°C° 0.4 mm 1 mps 689 mmHg 96%
    04:00 +23°C° 0.4 mm 1 mps 689 mmHg 97%
    05:00 +23°C° 0.7 mm 1 mps 689 mmHg 96%
    06:00 +23°C° 0.7 mm 1 mps 690 mmHg 94%
    07:00 +22°C° 0.7 mm 0 mps 691 mmHg 93%
    08:00 +24°C° 0.7 mm 1 mps 691 mmHg 90%
    09:00 +25°C° 0.7 mm 1 mps 691 mmHg 87%
    10:00 +26°C° 0.7 mm 1 mps 691 mmHg 83%
    11:00 +26°C° 0.8 mm 1 mps 691 mmHg 82%
    12:00 +26°C° 0.8 mm 1 mps 690 mmHg 81%
    13:00 +27°C° 0.8 mm 1 mps 689 mmHg 80%
    14:00 +26°C° 0.7 mm 1 mps 689 mmHg 81%
    15:00 +26°C° 0.7 mm 1 mps 689 mmHg 83%
    16:00 +26°C° 0.7 mm 1 mps 688 mmHg 84%
    17:00 +25°C° 0.4 mm 1 mps 689 mmHg 87%
    18:00 +24°C° 0.4 mm 1 mps 689 mmHg 89%
    19:00 +23°C° 0.4 mm 1 mps 689 mmHg 91%
    20:00 +23°C° 0 mm 1 mps 690 mmHg 90%
    21:00 +23°C° 0 mm 1 mps 690 mmHg 90%
    22:00 +21°C° 0 mm 0 mps 690 mmHg 89%
    23:00 +21°C° 0.1 mm 0 mps 690 mmHg 89%

    23 October, Tuesday

    Time Temperature Precipitation Wind Pressure Humidity
    00:00 +23°C° 0.1 mm 1 mps 690 mmHg 89%
    01:00 +22°C° 0.1 mm 1 mps 690 mmHg 89%
    02:00 +20°C° 0.1 mm 0 mps 690 mmHg 89%
    03:00 +20°C° 0.1 mm 0 mps 690 mmHg 89%
    04:00 +20°C° 0.1 mm 0 mps 690 mmHg 89%
    05:00 +22°C° 0.1 mm 1 mps 690 mmHg 89%
    06:00 +22°C° 0.1 mm 1 mps 691 mmHg 88%
    07:00 +23°C° 0.1 mm 1 mps 692 mmHg 88%
    08:00 +24°C° 0.3 mm 1 mps 692 mmHg 85%
    09:00 +25°C° 0.3 mm 1 mps 693 mmHg 82%
    10:00 +26°C° 0.3 mm 2 mps 693 mmHg 78%
    11:00 +27°C° 0.6 mm 2 mps 692 mmHg 75%
    12:00 +27°C° 0.6 mm 2 mps 692 mmHg 71%
    13:00 +28°C° 0.6 mm 2 mps 691 mmHg 68%
    14:00 +27°C° 0.7 mm 2 mps 691 mmHg 72%
    15:00 +27°C° 0.7 mm 1 mps 690 mmHg 76%
    16:00 +26°C° 0.7 mm 1 mps 690 mmHg 80%
    17:00 +25°C° 0.1 mm 1 mps 690 mmHg 82%
    18:00 +24°C° 0.1 mm 1 mps 691 mmHg 84%
    19:00 +23°C° 0.1 mm 1 mps 691 mmHg 86%
    20:00 +23°C° 0.1 mm 1 mps 691 mmHg 85%
    21:00 +23°C° 0.1 mm 1 mps 692 mmHg 84%
    22:00 +23°C° 0.1 mm 1 mps 692 mmHg 83%
    23:00 +22°C° 0 mm 1 mps 691 mmHg 84%

    24 October, Wednesday

    Time Temperature Precipitation Wind Pressure Humidity
    00:00 +22°C° 0 mm 1 mps 691 mmHg 85%
    01:00 +22°C° 0 mm 1 mps 691 mmHg 86%
    02:00 +22°C° 0 mm 1 mps 691 mmHg 86%
    03:00 +21°C° 0 mm 1 mps 690 mmHg 87%
    04:00 +20°C° 0 mm 2 mps 690 mmHg 88%
    05:00 +21°C° 0 mm 2 mps 691 mmHg 86%
    06:00 +23°C° 0 mm 2 mps 692 mmHg 84%
    07:00 +22°C° 0 mm 3 mps 692 mmHg 82%
    08:00 +26°C° 0 mm 3 mps 692 mmHg 74%
    09:00 +28°C° 0 mm 3 mps 693 mmHg 65%
    10:00 +30°C° 0 mm 2 mps 693 mmHg 57%
    11:00 +30°C° 0.3 mm 2 mps 692 mmHg 56%
    12:00 +30°C° 0.3 mm 2 mps 691 mmHg 55%
    13:00 +31°C° 0.3 mm 2 mps 691 mmHg 54%
    14:00 +30°C° 0.1 mm 2 mps 690 mmHg 56%
    15:00 +29°C° 0.1 mm 1 mps 689 mmHg 58%
    16:00 +29°C° 0.1 mm 1 mps 689 mmHg 60%
    17:00 +27°C° 0.3 mm 1 mps 689 mmHg 65%
    18:00 +26°C° 0.3 mm 1 mps 690 mmHg 71%
    19:00 +24°C° 0.3 mm 1 mps 690 mmHg 77%
    20:00 +24°C° 0.2 mm 1 mps 690 mmHg 79%
    21:00 +23°C° 0.2 mm 1 mps 691 mmHg 81%
    22:00 +23°C° 0.2 mm 1 mps 691 mmHg 84%
    23:00 +23°C° 0 mm 1 mps 691 mmHg 84%

    25 October, Thursday

    Time Temperature Precipitation Wind Pressure Humidity
    00:00 +23°C° 0 mm 1 mps 690 mmHg 85%
    01:00 +23°C° 0 mm 1 mps 690 mmHg 85%
    02:00 +22°C° 0.1 mm 1 mps 690 mmHg 86%
    03:00 +22°C° 0.1 mm 1 mps 690 mmHg 88%
    04:00 +22°C° 0.1 mm 1 mps 690 mmHg 89%
    05:00 +22°C° 0.1 mm 1 mps 690 mmHg 87%
    06:00 +23°C° 0.1 mm 1 mps 691 mmHg 85%
    07:00 +23°C° 0.1 mm 1 mps 692 mmHg 83%
    08:00 +25°C° 0.2 mm 1 mps 692 mmHg 78%
    09:00 +26°C° 0.2 mm 1 mps 692 mmHg 72%
    10:00 +28°C° 0.2 mm 1 mps 692 mmHg 66%
    11:00 +29°C° 0.2 mm 1 mps 691 mmHg 59%
    12:00 +31°C° 0.2 mm 1 mps 691 mmHg 52%
    13:00 +34°C° 0.2 mm 2 mps 690 mmHg 45%
    14:00 +32°C° 0 mm 1 mps 690 mmHg 47%
    15:00 +32°C° 0 mm 1 mps 689 mmHg 49%
    16:00 +31°C° 0 mm 1 mps 689 mmHg 51%
    17:00 +30°C° 0 mm 1 mps 689 mmHg 56%
    18:00 +26°C° 0 mm 0 mps 689 mmHg 62%
    19:00 +24°C° 0 mm 0 mps 690 mmHg 67%
    20:00 +23°C° 0.1 mm 0 mps 690 mmHg 71%
    21:00 +23°C° 0.1 mm 0 mps 690 mmHg 74%
    22:00 +22°C° 0.1 mm 0 mps 691 mmHg 77%
    23:00 +22°C° 0.1 mm 0 mps 690 mmHg 80%
    Show more